FW8740 Weather Reports


Display with metric or nautical units.
time (UTC)temp
F
wind
direction
speed
MPH
gust
MPH
rain 1hr
in
rain 24hr
in
rain mn
in
humidity
%
barometer
mb
20260508134127 52 54 1.0 3.0 0.00 0.03 0.03 71 1015.2
20260508133624 53 84 1.0 5.0 0.00 0.03 0.03 72 1015.3
20260508133121 51 337 2.0 3.0 0.00 0.03 0.03 73 1015.2
20260508132619 51 74 2.0 6.0 0.00 0.03 0.03 75 1015.4
20260508132116 52 100 2.0 3.0 0.00 0.03 0.03 77 1015.4
20260508131612 51 51 1.0 2.0 0.00 0.03 0.03 78 1015.4
20260508131109 51 72 1.0 2.0 0.00 0.03 0.03 79 1015.5
20260508130605 51 57 2.0 3.0 0.00 0.03 0.03 80 1015.2
20260508125557 50 122 1.0 3.0 0.00 0.03 0.03 82 1015.1
20260508125055 50 206 1.0 2.0 0.00 0.03 0.03 83 1015.3
20260508124553 50 83 1.0 6.0 0.00 0.03 0.03 84 1015.4
20260508124049 49 92 3.0 5.0 0.00 0.03 0.03 85 1015.4
20260508123548 49 9 2.0 6.0 0.00 0.03 0.03 85 1015.4
20260508123044 49 290 3.0 5.0 0.00 0.03 0.03 86 1015.6
20260508122541 48 321 2.0 7.0 0.00 0.03 0.03 86 1015.5
20260508122038 48 14 2.0 5.0 0.00 0.03 0.03 87 1015.5
20260508121537 48 69 2.0 2.0 0.00 0.03 0.03 87 1015.4
20260508121034 48 29 3.0 6.0 0.00 0.03 0.03 87 1015.6
20260508120531 47 68 1.0 3.0 0.00 0.03 0.03 88 1015.6
20260508120030 47 89 0.0 3.0 0.00 0.03 0.03 88 1015.5
20260508115527 47 322 4.0 5.0 0.00 0.03 0.03 88 1015.5
20260508115023 46 165 1.0 2.0 0.00 0.03 0.03 88 1015.6
20260508114520 46 320 1.0 3.0 0.00 0.03 0.03 89 1015.2
20260508114017 46 47 1.0 2.0 0.00 0.03 0.03 89 1015.3
20260508113514 46 49 2.0 2.0 0.00 0.03 0.03 89 1015.1
20260508113012 45 81 1.0 2.0 0.00 0.03 0.03 89 1015.1
20260508112508 45 82 0.0 1.0 0.00 0.03 0.03 89 1015.1
20260508112005 45 84 0.0 1.0 0.00 0.03 0.03 89 1015.2
20260508111502 45 71 1.0 2.0 0.00 0.03 0.03 90 1015.0
20260508110959 44 83 1.0 1.0 0.00 0.03 0.03 90 1015.1
20260508110457 44 87 0.0 1.0 0.00 0.03 0.03 90 1015.0
20260508105956 44 81 1.0 2.0 0.00 0.03 0.03 90 1015.1
20260508105453 44 49 1.0 3.0 0.00 0.03 0.03 90 1015.1
20260508104950 44 79 1.0 2.0 0.00 0.03 0.03 90 1014.8
20260508104448 44 81 0.0 1.0 0.00 0.03 0.03 90 1015.0
20260508103944 43 84 0.0 0.0 0.00 0.03 0.03 90 1015.0
20260508103441 43 86 0.0 1.0 0.00 0.03 0.03 90 1014.8
20260508102938 43 84 0.0 2.0 0.00 0.03 0.03 90 1014.8
20260508102437 43 66 1.0 2.0 0.00 0.03 0.03 90 1014.9
20260508101933 43 73 0.0 0.0 0.00 0.03 0.03 89 1014.8
20260508101431 43 60 0.0 0.0 0.00 0.03 0.03 89 1014.9
20260508100928 43 83 0.0 0.0 0.00 0.03 0.03 89 1014.9
20260508100427 42 82 0.0 0.0 0.00 0.03 0.03 89 1014.8
20260508095922 42 82 0.0 0.0 0.00 0.03 0.03 89 1014.7
20260508095420 43 80 0.0 0.0 0.00 0.03 0.03 89 1014.4
20260508094916 43 80 0.0 0.0 0.00 0.03 0.03 89 1014.5
20260508094413 43 80 0.0 0.0 0.00 0.03 0.03 89 1014.4
20260508093910 44 79 0.0 0.0 0.00 0.03 0.03 89 1014.6
20260508093408 44 78 0.0 0.0 0.00 0.03 0.03 89 1014.6
20260508092905 44 77 0.0 0.0 0.00 0.03 0.03 89 1014.3
20260508092403 44 76 0.0 0.0 0.00 0.03 0.03 89 1014.5
20260508091901 44 74 0.0 0.0 0.00 0.03 0.03 88 1014.5
20260508091357 44 47 1.0 2.0 0.00 0.03 0.03 88 1014.2
20260508090855 44 79 0.0 0.0 0.00 0.03 0.03 88 1014.3
20260508090354 44 78 0.0 1.0 0.00 0.03 0.03 88 1014.2
20260508085849 43 328 1.0 3.0 0.00 0.03 0.03 88 1014.2
20260508085346 43 88 0.0 1.0 0.00 0.03 0.03 88 1014.2
20260508084842 43 78 0.0 1.0 0.00 0.03 0.03 88 1014.1
20260508084339 43 90 0.0 1.0 0.00 0.03 0.03 88 1014.1
20260508083837 43 95 0.0 2.0 0.00 0.03 0.03 88 1014.1
20260508083335 43 87 0.0 1.0 0.00 0.03 0.03 87 1014.1
20260508082834 43 82 0.0 1.0 0.00 0.03 0.03 87 1014.1
20260508082332 43 99 0.0 1.0 0.00 0.03 0.03 87 1014.3
20260508081829 44 99 0.0 0.0 0.00 0.03 0.03 87 1014.0
20260508081326 44 88 0.0 2.0 0.00 0.03 0.03 87 1014.2
20260508080823 43 99 0.0 0.0 0.00 0.03 0.03 87 1014.1
20260508080321 43 99 0.0 0.0 0.07 0.03 0.03 86 1014.0
20260508075817 44 99 0.0 0.0 0.07 0.03 0.03 86 1014.3
20260508075314 44 99 0.0 0.0 0.00 0.02 0.02 86 1014.0
20260508074812 44 99 0.0 1.0 0.00 0.02 0.02 86 1014.1
20260508074309 44 97 0.0 1.0 0.00 0.02 0.02 86 1014.2
20260508073806 44 76 0.0 1.0 0.00 0.02 0.02 85 1014.3
20260508073303 44 78 0.0 1.0 0.00 0.02 0.02 85 1014.4
20260508072759 44 89 0.0 1.0 0.00 0.02 0.02 85 1014.4
20260508072256 44 66 0.0 1.0 0.00 0.02 0.02 85 1014.3
20260508071754 44 72 0.0 1.0 0.00 0.02 0.02 84 1014.3
20260508071252 44 68 1.0 1.0 0.00 0.02 0.02 84 1014.3
20260508070749 44 74 1.0 1.0 0.00 0.02 0.02 83 1014.7
20260508070248 44 88 0.0 1.0 0.00 0.02 0.02 83 1014.6
20260508065744 44 29 0.0 1.0 0.00 0.02 0.02 82 1014.8
20260508065242 44 86 0.0 2.0 0.00 0.02 0.02 81 1014.8
20260508064740 44 86 0.0 1.0 0.00 0.02 0.02 80 1014.7
20260508064238 44 86 0.0 1.0 0.00 0.02 0.02 78 1014.8
20260508063735 45 82 0.0 3.0 0.05 0.02 0.02 76 1014.7
20260508063233 46 91 0.0 2.0 0.12 0.02 0.02 74 1014.8
20260508062730 46 81 1.0 3.0 0.07 0.01 0.01 71 1014.7
20260508062227 48 91 1.0 3.0 0.00 0.00 0.00 67 1014.6
20260508061724 48 35 2.0 3.0 0.00 0.00 0.00 64 1014.4
20260508061221 48 72 0.0 10.0 0.00 0.00 0.00 64 1014.2
20260508060718 48 53 1.0 3.0 0.00 0.00 0.00 66 1013.9
20260508060216 47 71 1.0 2.0 0.00 0.00 0.00 68 1014.0
20260508055711 47 54 2.0 3.0 0.00 0.00 0.00 68 1012.9
20260508055208 47 26 3.0 3.0 0.00 0.00 0.00 71 1012.6
20260508054704 46 84 0.0 1.0 0.00 0.00 0.00 72 1012.2
20260508054202 46 84 0.0 0.0 0.00 0.00 0.00 73 1012.4
20260508053659 46 84 0.0 0.0 0.00 0.00 0.00 73 1012.5
20260508053156 45 84 0.0 1.0 0.00 0.00 0.00 74 1012.5
20260508052654 45 95 0.0 0.0 0.00 0.00 0.00 74 1012.5
20260508052151 46 95 0.0 0.0 0.00 0.00 0.00 72 1012.4
20260508051647 47 96 0.0 0.0 0.00 0.00 0.00 71 1012.5
20260508051142 46 96 0.0 0.0 0.00 0.00 0.00 70 1012.7
20260508050638 46 96 0.0 0.0 0.00 0.00 0.00 71 1012.4
20260508050136 46 96 0.0 0.0 0.00 0.00 0.00 73 1012.6
20260508045632 46 96 0.0 0.0 0.00 0.00 0.00 74 1012.3
20260508045130 46 96 0.0 0.0 0.00 0.00 0.00 75 1012.7
20260508044627 45 96 0.0 0.0 0.00 0.00 0.00 76 1012.1
20260508044123 44 96 0.0 0.0 0.00 0.00 0.00 77 1012.2
20260508043620 44 96 0.0 0.0 0.00 0.00 0.00 78 1012.1
20260508043118 44 96 0.0 0.0 0.00 0.00 0.00 78 1012.4
20260508042614 44 96 0.0 0.0 0.00 0.00 0.00 78 1012.4
20260508042111 44 96 0.0 0.0 0.00 0.00 0.00 79 1012.2
20260508041607 44 96 0.0 0.0 0.00 0.00 0.00 79 1012.3
20260508041104 44 96 0.0 0.0 0.00 0.00 0.00 80 1012.3
20260508040600 44 96 0.0 0.0 0.00 0.00 0.00 80 1012.6
20260508040059 43 96 0.0 0.0 0.00 0.00 0.00 80 1012.3
20260508035555 43 96 0.0 0.0 0.00 0.18 0.18 80 1012.3
20260508035053 43 96 0.0 0.0 0.00 0.18 0.18 80 1012.6
20260508034549 43 96 0.0 0.0 0.00 0.18 0.18 80 1012.4
20260508034046 43 96 0.0 0.0 0.00 0.18 0.18 80 1012.6
20260508033544 44 96 0.0 0.0 0.00 0.18 0.18 79 1012.6
20260508033042 44 96 0.0 0.0 0.00 0.18 0.18 79 1012.6
20260508032538 44 96 0.0 0.0 0.00 0.18 0.18 78 1012.3
20260508032036 44 96 0.0 0.0 0.00 0.18 0.18 78 1012.5
20260508031533 44 96 0.0 0.0 0.00 0.18 0.18 77 1012.4
20260508031029 45 96 0.0 0.0 0.00 0.18 0.18 77 1012.4
20260508030525 45 96 0.0 0.0 0.00 0.18 0.18 76 1012.4
20260508030024 45 96 0.0 0.0 0.00 0.18 0.18 76 1012.4
20260508025519 45 96 0.0 0.0 0.00 0.18 0.18 75 1012.5
20260508025016 45 96 0.0 0.0 0.00 0.18 0.18 74 1012.4
20260508024512 45 96 0.0 0.0 0.00 0.18 0.18 74 1012.4
20260508024009 45 96 0.0 0.0 0.00 0.18 0.18 73 1012.4
20260508023506 46 96 0.0 0.0 0.00 0.18 0.18 73 1012.5
20260508023004 46 96 0.0 0.0 0.00 0.18 0.18 72 1012.4
20260508022459 46 96 0.0 0.0 0.00 0.18 0.18 71 1012.5
20260508021955 46 96 0.0 0.0 0.00 0.18 0.18 70 1012.4
20260508021452 46 96 0.0 0.0 0.00 0.18 0.18 69 1012.3
20260508020948 47 96 0.0 0.0 0.00 0.18 0.18 69 1012.3
20260508020446 47 96 0.0 0.0 0.00 0.18 0.18 68 1012.2
20260508015943 47 96 0.0 0.0 0.00 0.18 0.18 67 1012.5
20260508015441 47 96 0.0 0.0 0.00 0.18 0.18 66 1012.3
20260508014937 47 96 0.0 0.0 0.00 0.18 0.18 67 1012.1
20260508014434 47 96 0.0 0.0 0.00 0.18 0.18 65 1012.3
20260508013930 47 96 0.0 0.0 0.00 0.18 0.18 65 1012.3
20260508013426 47 96 0.0 0.0 0.00 0.18 0.18 64 1012.3
20260508012924 48 96 0.0 0.0 0.00 0.18 0.18 64 1012.3
20260508012420 48 96 0.0 0.0 0.00 0.18 0.18 62 1012.1
20260508011918 48 96 0.0 0.0 0.00 0.18 0.18 60 1012.0
20260508011416 49 96 0.0 0.0 0.00 0.18 0.18 60 1012.1
20260508010913 49 96 0.0 0.0 0.00 0.18 0.18 60 1012.0
20260508010410 50 97 0.0 0.0 0.00 0.18 0.18 59 1012.2
20260508005907 51 97 0.0 0.0 0.00 0.18 0.18 58 1011.9
20260508005404 51 97 0.0 0.0 0.00 0.18 0.18 56 1012.2
20260508004900 51 97 0.0 0.0 0.00 0.18 0.18 55 1011.8
20260508004356 51 96 0.0 0.0 0.00 0.18 0.18 54 1012.0
20260508003853 52 96 0.0 0.0 0.00 0.18 0.18 52 1011.9
20260508003350 52 96 0.0 0.0 0.00 0.18 0.18 53 1011.7
20260508002847 53 97 0.0 0.0 0.00 0.18 0.18 52 1011.5
20260508002343 53 97 0.0 0.0 0.00 0.18 0.18 51 1011.6
20260508001840 53 96 0.0 0.0 0.00 0.18 0.18 51 1011.7
20260508001336 54 97 0.0 0.0 0.00 0.18 0.18 50 1011.4
20260508000832 54 97 0.0 0.0 0.00 0.18 0.18 49 1011.4
20260508000329 55 96 0.0 0.0 0.00 0.18 0.18 48 1011.3
20260507235825 55 84 0.0 1.0 0.00 0.18 0.18 48 1011.5
20260507235323 56 88 0.0 1.0 0.00 0.18 0.18 47 1011.5
20260507234820 56 84 0.0 2.0 0.00 0.18 0.18 46 1011.4
20260507234317 56 85 0.0 1.0 0.00 0.18 0.18 46 1011.1
20260507233813 57 84 0.0 1.0 0.00 0.18 0.18 47 1011.2
20260507233311 57 84 1.0 1.0 0.00 0.18 0.18 45 1011.2
20260507232809 57 105 1.0 3.0 0.00 0.18 0.18 45 1010.8
20260507232306 57 88 0.0 2.0 0.00 0.18 0.18 45 1011.1
20260507231802 57 89 0.0 1.0 0.00 0.18 0.18 45 1010.9
20260507231259 58 83 0.0 1.0 0.00 0.18 0.18 45 1010.8
20260507230755 58 81 1.0 1.0 0.00 0.18 0.18 43 1011.1
20260507230252 58 52 2.0 3.0 0.00 0.18 0.18 43 1011.0
20260507225752 58 86 0.0 2.0 0.00 0.18 0.18 43 1010.8
20260507225248 58 81 1.0 3.0 0.00 0.18 0.18 44 1010.9
20260507224744 59 81 1.0 2.0 0.00 0.18 0.18 44 1010.9
20260507224241 59 102 2.0 2.0 0.00 0.18 0.18 43 1010.7
20260507223737 60 79 2.0 2.0 0.00 0.18 0.18 42 1010.7
20260507223234 60 74 1.0 3.0 0.00 0.18 0.18 41 1010.8
20260507222731 59 6 4.0 5.0 0.00 0.18 0.18 42 1010.6
20260507222227 60 74 1.0 3.0 0.00 0.18 0.18 42 1010.9
20260507221724 60 73 3.0 6.0 0.00 0.18 0.18 41 1010.7
20260507221220 60 322 3.0 5.0 0.00 0.18 0.18 41 1011.1
20260507220717 60 336 6.0 8.0 0.00 0.18 0.18 40 1010.7
20260507220216 61 65 1.0 5.0 0.00 0.18 0.18 40 1010.8
20260507215711 61 37 3.0 7.0 0.00 0.18 0.18 40 1010.7
20260507215209 62 106 1.0 8.0 0.00 0.18 0.18 40 1010.9
20260507214706 62 91 1.0 7.0 0.00 0.18 0.18 39 1010.9
20260507214203 63 313 1.0 6.0 0.00 0.18 0.18 40 1010.8
20260507213658 62 84 1.0 7.0 0.00 0.18 0.18 40 1010.7
20260507213156 62 48 3.0 7.0 0.00 0.18 0.18 40 1010.5
20260507212652 62 17 4.0 7.0 0.00 0.18 0.18 40 1010.4
20260507212149 62 56 3.0 6.0 0.00 0.18 0.18 39 1010.4
20260507211646 63 40 3.0 8.0 0.00 0.18 0.18 38 1010.2
20260507211141 64 114 1.0 5.0 0.00 0.18 0.18 39 1010.4
20260507210639 63 35 2.0 6.0 0.00 0.18 0.18 40 1010.5
20260507210135 64 55 4.0 6.0 0.00 0.18 0.18 39 1010.5
20260507205632 65 17 3.0 5.0 0.00 0.18 0.18 38 1010.5
20260507205128 64 40 1.0 6.0 0.00 0.18 0.18 39 1010.5
20260507204625 64 55 1.0 3.0 0.00 0.18 0.18 39 1010.1
20260507204122 64 121 2.0 5.0 0.00 0.18 0.18 40 1010.3
20260507203620 63 12 4.0 6.0 0.00 0.18 0.18 39 1010.5
20260507203117 64 41 2.0 2.0 0.00 0.18 0.18 39 1010.2
20260507202613 64 108 2.0 6.0 0.00 0.18 0.18 39 1010.5
20260507202110 64 312 6.0 9.0 0.00 0.18 0.18 40 1010.3
20260507201605 64 53 2.0 6.0 0.00 0.18 0.18 39 1010.5
20260507201102 62 31 2.0 5.0 0.00 0.18 0.18 39 1010.5
20260507200557 64 28 3.0 6.0 0.00 0.18 0.18 39 1010.5
20260507200053 63 71 3.0 3.0 0.00 0.18 0.18 39 1010.5
20260507195551 64 333 2.0 5.0 0.00 0.18 0.18 40 1010.7
20260507195048 63 70 1.0 6.0 0.00 0.18 0.18 39 1010.6
20260507194544 64 4 2.0 6.0 0.00 0.18 0.18 40 1010.6
20260507194040 64 330 2.0 5.0 0.00 0.18 0.18 40 1010.4
20260507193538 63 89 1.0 3.0 0.00 0.18 0.18 40 1010.9
20260507193034 63 324 3.0 5.0 0.00 0.18 0.18 40 1010.7
20260507192530 63 78 1.0 5.0 0.00 0.18 0.18 41 1010.8
20260507192028 62 235 2.0 6.0 0.00 0.18 0.18 41 1010.9
20260507191523 63 46 2.0 3.0 0.00 0.18 0.18 40 1010.9
20260507191020 63 8 3.0 5.0 0.00 0.18 0.18 42 1011.0
20260507190517 62 4 1.0 6.0 0.00 0.18 0.18 41 1011.3
20260507190016 63 43 2.0 6.0 0.00 0.18 0.18 41 1011.0
20260507185514 62 350 2.0 8.0 0.00 0.18 0.18 41 1011.3
20260507185010 63 37 2.0 6.0 0.00 0.18 0.18 42 1011.2
20260507184509 63 92 1.0 5.0 0.00 0.18 0.18 41 1011.2
20260507184006 61 104 2.0 5.0 0.00 0.18 0.18 42 1011.4
20260507183502 62 15 3.0 5.0 0.00 0.18 0.18 44 1011.3
20260507182959 60 142 3.0 7.0 0.00 0.18 0.18 42 1011.4
20260507182455 61 42 2.0 5.0 0.00 0.18 0.18 40 1011.5
20260507181951 62 331 3.0 7.0 0.00 0.18 0.18 41 1011.7
20260507181448 62 96 0.0 6.0 0.00 0.18 0.18 43 1011.7
20260507180944 61 69 1.0 5.0 0.00 0.18 0.18 42 1011.6
20260507180441 59 69 1.0 5.0 0.00 0.18 0.18 42 1011.6
20260507175937 62 286 5.0 7.0 0.00 0.18 0.18 41 1011.6
20260507175434 62 62 3.0 8.0 0.00 0.18 0.18 41 1011.7
20260507174932 63 166 2.0 5.0 0.00 0.18 0.18 43 1011.8
20260507174429 62 135 1.0 2.0 0.00 0.18 0.18 44 1011.8
20260507173926 62 25 2.0 6.0 0.00 0.18 0.18 42 1012.1
20260507173423 61 82 2.0 3.0 0.00 0.18 0.18 43 1012.2
20260507172920 60 86 1.0 5.0 0.00 0.18 0.18 45 1012.1
20260507172416 61 51 3.0 5.0 0.00 0.18 0.18 42 1012.0
20260507171913 61 167 1.0 2.0 0.00 0.18 0.18 42 1012.0
20260507171409 60 93 2.0 7.0 0.00 0.18 0.18 42 1012.2
20260507170907 61 25 2.0 6.0 0.00 0.18 0.18 41 1012.3
20260507170403 60 68 2.0 5.0 0.00 0.18 0.18 43 1012.6
20260507165859 60 234 3.0 5.0 0.00 0.18 0.18 43 1012.4
20260507165355 60 353 3.0 11.0 0.00 0.18 0.18 43 1012.4
20260507164851 60 28 2.0 3.0 0.00 0.18 0.18 45 1012.4
20260507164348 61 70 4.0 6.0 0.00 0.18 0.18 45 1012.6
20260507163845 60 78 1.0 3.0 0.00 0.18 0.18 46 1012.8
20260507163343 60 100 2.0 6.0 0.00 0.18 0.18 48 1012.8
20260507162839 59 19 1.0 3.0 0.00 0.18 0.18 47 1012.9
20260507162335 59 67 1.0 3.0 0.00 0.18 0.18 48 1013.0
20260507161832 59 101 2.0 5.0 0.00 0.18 0.18 51 1013.0
20260507161328 59 109 3.0 3.0 0.00 0.18 0.18 47 1012.9
20260507160825 59 28 2.0 5.0 0.00 0.18 0.18 50 1013.0
20260507160321 59 101 1.0 3.0 0.00 0.18 0.18 51 1013.0
20260507155818 58 17 2.0 6.0 0.00 0.18 0.18 50 1013.2
20260507155313 58 67 2.0 2.0 0.00 0.18 0.18 51 1013.0
20260507154810 58 10 2.0 3.0 0.00 0.18 0.18 52 1013.3
20260507154308 57 128 2.0 3.0 0.00 0.18 0.18 52 1013.4
20260507153804 56 47 3.0 3.0 0.00 0.18 0.18 50 1013.4
20260507153300 56 77 1.0 5.0 0.00 0.18 0.18 51 1013.5
20260507152757 57 47 2.0 8.0 0.00 0.18 0.18 52 1013.5
20260507152253 56 42 3.0 11.0 0.00 0.18 0.18 53 1013.6
20260507151749 55 43 2.0 5.0 0.00 0.18 0.18 57 1013.8
20260507151246 56 111 3.0 8.0 0.00 0.18 0.18 60 1013.7
20260507150743 56 57 1.0 2.0 0.00 0.18 0.18 64 1013.5
20260507150240 55 82 2.0 3.0 0.00 0.18 0.18 65 1013.5
20260507145736 55 77 1.0 8.0 0.00 0.18 0.18 68 1013.6
20260507145232 57 42 3.0 5.0 0.00 0.18 0.18 72 1013.5
20260507144729 56 230 1.0 3.0 0.00 0.18 0.18 75 1013.4
20260507144227 55 87 1.0 8.0 0.00 0.18 0.18 76 1013.4
20260507143723 55 31 5.0 7.0 0.00 0.18 0.18 78 1013.4
20260507143221 56 71 2.0 3.0 0.00 0.18 0.18 82 1013.5
20260507142716 54 77 1.0 3.0 0.00 0.18 0.18 84 1013.4
20260507142213 54 53 1.0 5.0 0.00 0.18 0.18 85 1013.3
20260507141709 54 296 3.0 6.0 0.00 0.18 0.18 86 1013.5
20260507141207 54 42 1.0 1.0 0.00 0.18 0.18 87 1013.4
20260507140703 53 123 1.0 2.0 0.00 0.18 0.18 88 1013.5
20260507140201 53 91 1.0 1.0 0.00 0.18 0.18 89 1013.6
20260507135657 51 86 1.0 5.0 0.00 0.18 0.18 89 1013.6
20260507135155 53 54 2.0 3.0 0.00 0.18 0.18 89 1013.7
20260507134651 52 100 0.0 2.0 0.00 0.18 0.18 90 1013.7